UAL430 KLAX-KSAN

Flight info

Callsign UAL430
Flight time 0h 29m
Altitude 13000
Route KLAX LAXX1 MBZ
Aircraft B738/M-G/C

Departure

Time 2026-05-07 01:49
Airport Los Angeles International Airport (KLAX)

Arrival

Time 2026-05-07 02:18
Airport San Diego International Airport (KSAN)
Time Latitude Longitude Altitude Speed Heading
2026-05-07 01:32 33.94204 -118.39785 113 ft 0 kts 84°
2026-05-07 01:41 33.94203 -118.39793 114 ft 2 kts 82°
2026-05-07 01:41 33.94201 -118.39811 114 ft 2 kts 84°
2026-05-07 01:41 33.94202 -118.39829 114 ft 2 kts 115°
2026-05-07 01:42 33.94211 -118.39844 115 ft 2 kts 138°
2026-05-07 01:42 33.94223 -118.39853 115 ft 2 kts 163°
2026-05-07 01:42 33.94230 -118.39854 115 ft 1 kts 176°
2026-05-07 01:42 33.94235 -118.39855 115 ft 0 kts 173°
2026-05-07 01:44 33.94234 -118.39854 115 ft 0 kts 173°
2026-05-07 01:44 33.94211 -118.39851 115 ft 8 kts 173°
2026-05-07 01:44 33.94127 -118.39840 115 ft 16 kts 174°
2026-05-07 01:45 33.93993 -118.39824 114 ft 21 kts 169°
2026-05-07 01:45 33.93911 -118.39700 112 ft 22 kts 87°
2026-05-07 01:45 33.93927 -118.39496 111 ft 26 kts 81°
2026-05-07 01:45 33.93955 -118.39257 108 ft 31 kts 85°
2026-05-07 01:46 33.93974 -118.38976 105 ft 36 kts 81°
2026-05-07 01:46 33.94014 -118.38669 105 ft 36 kts 82°
2026-05-07 01:46 33.94049 -118.38374 102 ft 35 kts 83°
2026-05-07 01:46 33.94069 -118.38173 102 ft 19 kts 84°
2026-05-07 01:47 33.94078 -118.38062 102 ft 1 kts 88°
2026-05-07 01:47 33.94078 -118.38045 102 ft 0 kts 95°
2026-05-07 01:47 33.94078 -118.38039 102 ft 2 kts 100°
2026-05-07 01:47 33.94038 -118.38005 102 ft 11 kts 168°
2026-05-07 01:48 33.93975 -118.38081 102 ft 14 kts 263°
2026-05-07 01:48 33.93973 -118.38096 102 ft 2 kts 263°
2026-05-07 01:48 33.93954 -118.38294 102 ft 63 kts 263°
2026-05-07 01:48 33.93869 -118.39159 108 ft 135 kts 263°
2026-05-07 01:49 33.93746 -118.40503 423 ft 177 kts 265°
2026-05-07 01:49 33.93700 -118.42022 1328 ft 189 kts 269°
2026-05-07 01:49 33.93469 -118.43508 2313 ft 182 kts 246°
2026-05-07 01:49 33.92738 -118.44833 2717 ft 205 kts 236°
2026-05-07 01:50 33.91918 -118.46325 3151 ft 221 kts 240°
2026-05-07 01:50 33.91137 -118.47829 4131 ft 210 kts 240°
2026-05-07 01:50 33.90482 -118.49355 4829 ft 210 kts 248°
2026-05-07 01:50 33.89880 -118.50933 4942 ft 199 kts 248°
2026-05-07 01:51 33.89294 -118.52454 4984 ft 212 kts 248°
2026-05-07 01:51 33.88628 -118.54217 4988 ft 251 kts 248°
2026-05-07 01:51 33.87807 -118.56143 4964 ft 263 kts 235°
2026-05-07 01:51 33.86450 -118.57632 4983 ft 271 kts 208°
2026-05-07 01:52 33.84655 -118.58286 5293 ft 266 kts 190°
2026-05-07 01:52 33.82817 -118.58701 5816 ft 273 kts 192°
2026-05-07 01:52 33.80941 -118.59174 6332 ft 285 kts 192°
2026-05-07 01:52 33.78981 -118.59676 6836 ft 290 kts 191°
2026-05-07 01:53 33.76983 -118.60060 7330 ft 293 kts 180°
2026-05-07 01:53 33.74975 -118.59643 7825 ft 292 kts 154°
2026-05-07 01:53 33.73317 -118.58294 8347 ft 288 kts 133°
2026-05-07 01:53 33.71932 -118.56589 8864 ft 291 kts 130°
2026-05-07 01:54 33.70500 -118.54855 9365 ft 294 kts 131°
2026-05-07 01:54 33.69036 -118.53127 9877 ft 295 kts 131°
2026-05-07 01:54 33.67571 -118.51407 10382 ft 297 kts 131°
2026-05-07 01:54 33.66083 -118.49670 10893 ft 298 kts 131°
2026-05-07 01:55 33.64751 -118.47789 11371 ft 294 kts 116°
2026-05-07 01:55 33.63844 -118.45644 11889 ft 293 kts 110°
2026-05-07 01:55 33.62969 -118.43408 12393 ft 297 kts 111°
2026-05-07 01:55 33.62066 -118.41185 12877 ft 302 kts 111°
2026-05-07 01:56 33.61107 -118.38832 12973 ft 322 kts 111°
2026-05-07 01:56 33.60112 -118.36361 12969 ft 342 kts 111°
2026-05-07 01:56 33.59060 -118.33723 12975 ft 358 kts 111°
2026-05-07 01:56 33.57986 -118.31030 12972 ft 358 kts 111°
2026-05-07 01:57 33.56910 -118.28338 13002 ft 356 kts 111°
2026-05-07 01:57 33.55873 -118.25642 12958 ft 355 kts 109°
2026-05-07 01:57 33.54942 -118.22910 12971 ft 354 kts 108°
2026-05-07 01:57 33.54026 -118.20198 12963 ft 354 kts 108°
2026-05-07 01:58 33.53075 -118.17452 12958 ft 354 kts 109°
2026-05-07 01:58 33.52126 -118.14723 12968 ft 354 kts 108°
2026-05-07 01:58 33.51199 -118.12036 12975 ft 353 kts 108°
2026-05-07 01:58 33.50259 -118.09312 12958 ft 352 kts 108°
2026-05-07 01:59 33.49276 -118.06603 12959 ft 356 kts 114°
2026-05-07 01:59 33.47848 -118.04175 12980 ft 364 kts 126°
2026-05-07 01:59 33.46158 -118.01886 12967 ft 364 kts 126°
2026-05-07 01:59 33.44591 -117.99541 12970 ft 360 kts 122°
2026-05-07 02:00 33.43099 -117.97134 12971 ft 360 kts 121°
2026-05-07 02:00 33.41625 -117.94734 12978 ft 359 kts 122°
2026-05-07 02:00 33.40135 -117.92329 12960 ft 361 kts 122°
2026-05-07 02:00 33.38629 -117.89910 12969 ft 361 kts 122°
2026-05-07 02:01 33.37139 -117.87491 12973 ft 359 kts 122°
2026-05-07 02:01 33.35673 -117.85084 12967 ft 360 kts 121°
2026-05-07 02:01 33.34214 -117.82689 12971 ft 359 kts 121°
2026-05-07 02:01 33.32722 -117.80247 12983 ft 361 kts 121°
2026-05-07 02:02 33.31248 -117.77845 12973 ft 362 kts 122°
2026-05-07 02:02 33.29754 -117.75417 12973 ft 362 kts 121°
2026-05-07 02:02 33.28278 -117.73003 12942 ft 360 kts 121°
2026-05-07 02:02 33.26791 -117.70565 12982 ft 361 kts 121°
2026-05-07 02:03 33.25310 -117.68141 12965 ft 362 kts 121°
2026-05-07 02:03 33.23835 -117.65736 12970 ft 361 kts 122°
2026-05-07 02:03 33.22354 -117.63328 12996 ft 361 kts 121°
2026-05-07 02:03 33.20857 -117.60902 12987 ft 360 kts 121°
2026-05-07 02:04 33.19387 -117.58511 12947 ft 359 kts 121°
2026-05-07 02:04 33.17909 -117.56101 12982 ft 360 kts 121°
2026-05-07 02:04 33.16428 -117.53691 12982 ft 360 kts 121°
2026-05-07 02:04 33.14934 -117.51269 12985 ft 359 kts 121°
2026-05-07 02:05 33.13468 -117.48892 12879 ft 361 kts 121°
2026-05-07 02:05 33.11990 -117.46491 12626 ft 352 kts 121°
2026-05-07 02:05 33.10594 -117.44229 12364 ft 332 kts 121°
2026-05-07 02:05 33.09246 -117.42052 12120 ft 313 kts 121°
2026-05-07 02:06 33.08009 -117.40036 11884 ft 297 kts 120°
2026-05-07 02:06 33.06790 -117.38036 11672 ft 297 kts 121°
2026-05-07 02:06 33.05570 -117.36043 11408 ft 299 kts 121°
2026-05-07 02:06 33.04263 -117.34118 11104 ft 300 kts 129°
2026-05-07 02:07 33.02797 -117.32371 10819 ft 300 kts 136°
2026-05-07 02:07 32.98830 -117.30749 10238 ft 309 kts 165°
2026-05-07 02:07 32.96751 -117.30123 9943 ft 306 kts 159°
2026-05-07 02:08 32.94718 -117.29334 9652 ft 305 kts 158°
2026-05-07 02:08 32.92712 -117.28539 9363 ft 304 kts 158°
2026-05-07 02:08 32.90707 -117.27731 9063 ft 301 kts 156°
2026-05-07 02:08 32.88888 -117.26562 8749 ft 293 kts 136°
2026-05-07 02:09 32.87586 -117.24776 8465 ft 284 kts 120°
2026-05-07 02:09 32.86477 -117.22823 8183 ft 285 kts 121°
2026-05-07 02:09 32.85372 -117.20908 7887 ft 284 kts 121°
2026-05-07 02:09 32.84258 -117.18964 7586 ft 282 kts 121°
2026-05-07 02:10 32.83161 -117.17024 7289 ft 281 kts 121°
2026-05-07 02:10 32.82084 -117.15105 6989 ft 279 kts 121°
2026-05-07 02:10 32.81018 -117.13209 6684 ft 274 kts 121°
2026-05-07 02:10 32.79962 -117.11324 6382 ft 270 kts 121°
2026-05-07 02:11 32.78949 -117.09492 6105 ft 264 kts 121°
2026-05-07 02:11 32.77963 -117.07714 5837 ft 253 kts 121°
2026-05-07 02:11 32.77016 -117.06012 5536 ft 244 kts 121°
2026-05-07 02:11 32.76095 -117.04338 5227 ft 237 kts 120°
2026-05-07 02:12 32.75211 -117.02734 4986 ft 229 kts 120°
2026-05-07 02:12 32.74331 -117.01160 4967 ft 224 kts 121°
2026-05-07 02:12 32.73498 -116.99680 4952 ft 208 kts 121°
2026-05-07 02:12 32.72704 -116.98250 4765 ft 210 kts 121°
2026-05-07 02:13 32.71895 -116.96805 4477 ft 210 kts 122°
2026-05-07 02:13 32.70845 -116.95618 4171 ft 212 kts 152°
2026-05-07 02:13 32.69413 -116.95300 3879 ft 211 kts 188°
2026-05-07 02:13 32.68105 -116.96024 3602 ft 205 kts 227°
2026-05-07 02:14 32.67432 -116.97426 3573 ft 195 kts 252°
2026-05-07 02:14 32.67121 -116.98964 3572 ft 194 kts 269°
2026-05-07 02:14 32.67315 -117.00521 3555 ft 190 kts 297°
2026-05-07 02:14 32.68167 -117.01653 3312 ft 183 kts 327°
2026-05-07 02:15 32.69128 -117.02633 2995 ft 185 kts 307°
2026-05-07 02:15 32.69506 -117.04060 2689 ft 187 kts 273°
2026-05-07 02:15 32.69548 -117.05595 2423 ft 183 kts 286°
2026-05-07 02:15 32.70148 -117.06863 2156 ft 177 kts 309°
2026-05-07 02:16 32.70757 -117.08130 1845 ft 178 kts 287°
2026-05-07 02:16 32.71077 -117.09554 1562 ft 173 kts 287°
2026-05-07 02:16 32.71395 -117.10858 1263 ft 158 kts 286°
2026-05-07 02:16 32.71675 -117.12049 975 ft 144 kts 286°
2026-05-07 02:17 32.71940 -117.13140 831 ft 135 kts 288°
2026-05-07 02:17 32.72210 -117.14240 850 ft 148 kts 286°
2026-05-07 02:17 32.72501 -117.15447 744 ft 150 kts 285°
2026-05-07 02:17 32.72781 -117.16585 429 ft 140 kts 286°
2026-05-07 02:18 32.73043 -117.17657 122 ft 132 kts 287°
2026-05-07 02:18 32.73272 -117.18636 24 ft 102 kts 285°
2026-05-07 02:18 32.73365 -117.19112 25 ft 24 kts 254°
2026-05-07 02:18 32.73286 -117.19245 24 ft 16 kts 236°
2026-05-07 02:19 32.73273 -117.19269 24 ft 5 kts 241°
2026-05-07 02:19 32.73267 -117.19319 24 ft 0 kts 276°
2026-05-07 02:19 32.73268 -117.19336 25 ft 0 kts 276°
2026-05-07 02:19 32.73268 -117.19344 25 ft 3 kts 277°
2026-05-07 02:20 32.73315 -117.19444 25 ft 23 kts 312°
2026-05-07 02:20 32.73418 -117.19672 23 ft 39 kts 283°
2026-05-07 02:20 32.73504 -117.20004 21 ft 41 kts 288°
2026-05-07 02:20 32.73570 -117.20312 21 ft 35 kts 285°
2026-05-07 02:21 32.73534 -117.20481 21 ft 18 kts 231°
2026-05-07 02:21 32.73495 -117.20537 21 ft 0 kts 220°
2026-05-07 02:21 32.73473 -117.20546 21 ft 5 kts 187°
2026-05-07 02:21 32.73431 -117.20539 21 ft 7 kts 156°
2026-05-07 02:22 32.73394 -117.20503 21 ft 6 kts 112°
2026-05-07 02:22 32.73390 -117.20470 21 ft 0 kts 90°